STARLINK-4131, 53246

Orbit data source: Space-Track

STARLINK-4131, 53246 is a payload satellite owned by SpaceX/Seattle (US) in LEO that was launched on Sun, 24 Jul 2022 UTC via an FALCON 9 launch vehicle from the Air Force Eastern Test Range (AFETR). Payload-class satellites include a variety of spacecraft equipped with specific instruments for various scientific and technological missions. These include communications satellites like Starlink; space stations such as the ISS; scientific satellites like the Hubble; Earth observation satellites from companies like Planet Labs, Umbra, and HawkEye 360; GPS; miniature CubeSats for education and research; and military/defense satellites.

Loading next visibility...
Identifier
53246, 2022-086E
Orbit
LEO
Country
Flag of USUS
Related business
Manufacturer
SpaceX/Seattle
Mission
Operational Commercial Communications
Bus & Motor
STARLINK, Unknown motor
Mass
297 kg wet, ~275 kg dry
Launch date (UTC)
2022-07-24 (4 years ago)
Launch vehicle
FALCON 9
Launch site
Air Force Eastern Test Range (AFETR)
Object type
Payload
Rocket body
Debris
Shape & HBR
Box + 1 Pan, 10.1 m
Radar Cross Section
13.562 m², Large (>1 m²)

Expand to show TLE details & history
Last TLE update: 2 days ago

TLE from 2 days ago
0 STARLINK-4131
1 53246U 22086E   26170.97233639 -.00000097  00000-0  11997-4 0  9994
2 53246  53.1607 104.8450 0001509  92.1579 267.9586 15.08838974215570
Epoch: 2026-06-19T23:20Z
TLE epoch observation values (Epoch: 2026-06-19T23:20:09.864Z)
Latitude
0.00006°
Longitude
-153.3897°
Altitude
540.675 km
Speed
7.593 km/s
True Right ascension
06h 59m 22s
True Declination
0° 00' 00"
Sunlit
Object was in daylight at epoch
Visualization orbit readout
Latitude
Unknown
Longitude
Unknown
Altitude
Unknown
Speed
Unknown
Apparent Right ascension
Unknown
Apparent Declination
Unknown
Sunlit
N/A
Visualization observer readout
Local Sidereal Time
21:31:59
Azimuth
Unknown
Elevation
Unknown
Doppler factor
Unknown
Orbital elements
Apogee altitude
541.044 km
Perigee altitude
538.957 km
Semi-major axis
6,918.138 km
Eccentricity
0.00015
Inclination
53.1607°
RAAN
104.845°
Arg. of periapsis
92.1579°
True anomaly
267.94132°
Mean anomaly
267.9586°
Eccentric anomaly
267.94996°
Mean motion
3.77189 °/min
Orbital period
95.44 mins
BSTAR
0.000011997
Loading maneuver chart data...
Computing Atmospheric mass density...
Loading historical data...
Loading historical data...
Loading historical data...
Loading historical data...
Loading historical data...
Loading historical data...
Loading historical data...

Documentation

Showing up to 5 results
|